Sigfox identifier Datetime Temperature Humidity SNR
003954FF 2018-10-09 09:11:08 21.3 37 15.8
003954FF 2018-10-09 06:59:00 21.4 37 15.8
003954FF 2018-10-09 05:52:52 21.4 37 16.1
003954FF 2018-10-09 04:46:48 21.3 37 16
003954FF 2018-10-09 01:28:37 21.4 36 15.7
003954FF 2018-10-09 00:22:34 21.3 36 15.5
003954FF 2018-10-08 23:16:30 21.4 36 15.3
003954FF 2018-10-08 22:10:27 21.3 36 15.2
003954FF 2018-10-08 21:04:25 21.4 36 15.2
003954FF 2018-10-08 19:58:22 21.4 36 15.1
003954FF 2018-10-08 18:52:19 21.3 36 14.8
003954FF 2018-10-08 17:46:19 21.2 36 15
003954FF 2018-10-08 16:40:17 21.2 36 15.1
003954FF 2018-10-08 14:28:08 21 36 15.3
003954FF 2018-10-08 13:22:00 21 36 15.4
003954FF 2018-10-08 11:09:51 20.8 36 15.5
003954FF 2018-10-08 10:03:42 20.8 36 15.7
003954FF 2018-10-08 08:57:37 20.8 36 15.9
003954FF 2018-10-08 07:51:34 20.8 36 15.8
003954FF 2018-10-08 06:45:28 20.8 37 15.9
003954FF 2018-10-08 05:39:28 20.9 37 15.5
003954FF 2018-10-08 04:33:26 20.9 37 15.1
003954FF 2018-10-08 03:27:20 21 37 15.3
003954FF 2018-10-08 02:21:19 21 37 15.6
003954FF 2018-10-08 01:15:16 21 37 15.8
003954FF 2018-10-08 00:09:15 21 37 15.8
003954FF 2018-10-07 23:03:12 21 37 15.8
003954FF 2018-10-07 21:57:08 21 37 15.8
003954FF 2018-10-07 20:51:04 21 37 15.7
003954FF 2018-10-07 19:44:59 21 37 15.7
003954FF 2018-10-07 18:38:59 21 37 15.5
003954FF 2018-10-07 17:32:53 21 37 15.8
003954FF 2018-10-07 16:26:48 21 38 15.8
003954FF 2018-10-07 15:20:46 21 38 16.1
003954FF 2018-10-07 14:14:39 21 38 16.1
003954FF 2018-10-07 13:08:32 21 38 16.1
003954FF 2018-10-07 12:02:19 21 38 15.9
003954FF 2018-10-07 10:56:08 21.1 38 15.7
003954FF 2018-10-07 09:50:01 21 38 15.8
003954FF 2018-10-07 08:43:55 21.1 38 15.8
003954FF 2018-10-07 07:37:49 21 38 15.9
003954FF 2018-10-07 06:31:39 21.2 38 15.8
003954FF 2018-10-07 05:25:33 21.2 38 15.6
003954FF 2018-10-07 04:19:23 21.2 38 15.7
003954FF 2018-10-07 03:13:17 21.2 38 15.5
003954FF 2018-10-07 02:07:15 21.2 38 15.9
003954FF 2018-10-07 01:01:12 21.2 38 15.9
003954FF 2018-10-06 23:55:03 21.2 38 15.8
003954FF 2018-10-06 22:48:56 21.2 38 15.7
003954FF 2018-10-06 21:42:50 21.2 38 15.4
003954FF 2018-10-06 20:36:41 21.2 38 15.2
003954FF 2018-10-06 19:30:36 21.2 38 15.4
003954FF 2018-10-06 18:24:29 21.2 38 15.4
003954FF 2018-10-06 17:18:27 21.2 38 15.4
003954FF 2018-10-06 16:12:25 21.2 38 15.1
003954FF 2018-10-06 15:06:21 21.2 38 15.2
003954FF 2018-10-06 14:00:23 21.2 38 14.8
003954FF 2018-10-06 12:54:13 21.2 38 14.8
003954FF 2018-10-06 11:48:11 21.3 38 14.4
003954FF 2018-10-06 10:42:06 21.2 38 14.2
003954FF 2018-10-06 09:36:01 21.3 38 14.2
003954FF 2018-10-06 07:23:48 21.4 39 14.4
003954FF 2018-10-06 06:17:42 21.4 39 14.4
003954FF 2018-10-06 05:11:40 21.4 39 14
003954FF 2018-10-06 04:05:33 21.4 39 13.9
003954FF 2018-10-06 02:59:26 21.4 39 13.5
003954FF 2018-10-06 01:53:19 21.4 39 13.5
003954FF 2018-10-06 00:47:12 21.4 38 13.4
003954FF 2018-10-05 23:41:06 21.4 38 13.3
003954FF 2018-10-05 22:34:57 21.6 38 13
003954FF 2018-10-05 21:28:46 21.7 38 12.5
003954FF 2018-10-05 20:22:43 21.7 38 12.3
003954FF 2018-10-05 19:16:37 21.7 38 12
003954FF 2018-10-05 18:10:37 21.7 38 11.7
003954FF 2018-10-05 17:04:26 21.7 37 13.4
003954FF 2018-10-05 15:58:19 21.6 37 13.3
003954FF 2018-10-05 14:52:21 21.5 37 13
003954FF 2018-10-05 13:46:21 21.5 36 13
003954FF 2018-10-05 08:16:00 21 31 13.1
003954FF 2018-10-05 06:03:55 21 31 13.2
003954FF 2018-10-05 04:57:55 21 31 13.1
003954FF 2018-10-05 01:39:47 21.2 31 13.2
003954FF 2018-10-05 00:33:41 21.2 31 13.2
003954FF 2018-10-04 23:27:35 21.2 32 13.3
003954FF 2018-10-04 22:21:28 21.2 32 13.5
003954FF 2018-10-04 21:15:15 21.2 31 13.7
003954FF 2018-10-04 20:09:11 21.2 32 13.5
003954FF 2018-10-04 19:03:01 21.2 32 13.7
003954FF 2018-10-04 16:50:48 21 32 13.8
003954FF 2018-10-04 15:44:42 21 33 14.1
003954FF 2018-10-04 14:38:33 20.8 33 14.4
003954FF 2018-10-04 12:26:16 20.6 33 14.6
003954FF 2018-10-04 11:20:12 20.4 33 14.8
003954FF 2018-10-04 08:01:54 20.2 34 15
003954FF 2018-10-04 03:37:33 20.3 38 15.5
003954FF 2018-10-04 02:31:23 20.4 39 16
003954FF 2018-10-03 23:12:58 20.4 40 16.7
003954FF 2018-10-03 18:48:29 20.4 42 17.2
003954FF 2018-10-03 17:42:18 20.5 43 18.3
003954FF 2018-10-03 16:36:07 20.7 44 8.2
003954FF 2018-10-03 15:29:59 20.8 45 6
003954FF 2018-10-03 14:23:49 21 44 0